Simultaneous Nadir Overpasses (SNOs) Predictions

Prediction of SNOs between GOES-15 and NPP Satellite Orbit:

Table of predicted SNOs for the next 14.0 days since TLE Epoch: 10/7/2016
Index Date Time (GOES-15) GOES-15 Lat,Lon NPP Lat,Lon Distance(km) Time Diff (sec)
1 10/08/2016 22:28:12 -0.24,-135.13 -0.41,-135.91 88.81 80
2 10/09/2016 22:12:08 -0.24,-135.10 0.60,-131.38 424.24 80
3 10/11/2016 10:31:16 0.22,-135.08 0.57,-136.66 179.74 80
4 10/12/2016 10:15:12 0.23,-135.04 -0.44,-132.13 332.64 80
5 10/13/2016 22:34:28 -0.20,-134.95 -0.78,-137.43 282.79 80
6 10/14/2016 22:18:23 -0.22,-134.92 0.22,-132.90 229.63 80
7 10/16/2016 10:37:32 0.19,-134.89 0.93,-138.18 374.72 80
8 10/17/2016 10:21:27 0.20,-134.85 -0.08,-133.65 136.93 80
9 10/18/2016 22:40:44
